Voltar ao catálogo

YAOGAN-39 02B

AtivoMilitarVLEO
NORAD 57889·PAYLOAD·🇨🇳 China

Lançado Sep 17, 2023 de Xichang Satellite Launch Center

Loading…

Próximas Passagens (próximas 24 horas)

TLE

AtualizadoSource: Space-Track

Época: Sep 14, 2026, 18:53 UTC

1 57889U 23145D   26257.78683815  .00005015  00000-0  24925-3 0  9996
2 57889  34.9921  25.8260 0008439 190.5737 169.4799 15.17016200166502

Acompanhe YAOGAN-39 02B em tempo real com AllMySat

Download on the App Store